Location: Kutna Hora
(49.9500°N, 15.2670°E)
Time: 22:41:24
(UTC+02:00)

ISS - Pass Details

Date: 24 May 2019
Orbit: 408 x 418 km, 51.6° (Epoch: 19 June)

Event Time Altitude Azimuth Distance (km) Brightness Sun altitude
Rises 22:34:26 0° 274° (W) 2,355 0.6 -12.6°
Reaches altitude 10° 22:36:33 10° 278° (W) 1,494 -0.4 -12.8°
Maximum altitude 22:39:53 62° 0° (N) 473 -3.3 -13.1°
Drops below altitude 10° 22:43:13 10° 83° (E) 1,501 -1.2 -13.4°
Enters shadow 22:44:07 - 85° (E) 1,865 -0.7 -13.4°
